Simultaneous Nadir Overpasses (SNOs) Predictions

Prediction of SNOs between GOES-16 and AQUA Satellite Orbit:

Table of predicted SNOs for the next 14.0 days since TLE Epoch: 6/15/2018
Index Date Time (GOES-16) GOES-16 Lat,Lon AQUA Lat,Lon Distance(km) Time Diff (sec)
1 06/16/2018 06:38:42 -0.02, -75.21 -0.00, -75.35 15.20 80
2 06/18/2018 06:23:51 -0.02, -75.23 -0.64, -72.39 323.64 80
3 06/18/2018 18:47:54 0.02, -75.24 -0.50, -77.57 266.18 80
4 06/20/2018 18:33:02 0.01, -75.27 0.14, -74.62 73.74 80
5 06/22/2018 18:20:50 0.01, -75.31 0.78, -71.66 414.33 80
6 06/23/2018 06:44:45 -0.01, -75.32 0.30, -76.82 170.49 80
7 06/25/2018 06:29:53 -0.01, -75.36 -0.34, -73.86 170.74 80
8 06/25/2018 18:53:57 0.01, -75.37 -0.78, -79.05 418.49 80
9 06/27/2018 18:41:45 0.01, -75.42 -0.13, -76.10 76.58 80
10 06/29/2018 18:26:53 0.01, -75.48 0.53, -73.14 265.91 80




NCC Satellite Simultaneous Nadir Overpasses (SNOs) Prediction Service
